QPF
0.00 0.00 0.00 0.00 0.00 0.00 0.00 0.00 0.00 0.00 0.00 0.00 0.00 0.00 0.00 0.00 0.00 0.00 0.00 0.00 0.00 0.00 0.00 0.00 0.00 0.00 0.00 0.00 0.00 0.00 0.00 0.00 0.00 0.00 0.00 0.00 0.00 0.00 0.00 0.00 0.00 0.00 0.00 0.00 0.00
0.00 0.00 0.00 0.00 0.00 0.00 0.00 0.00 0.00 0.00 0.00 0.00 0.00 0.00 0.00 0.00 0.00 0.00 0.00 0.00 0.00 0.00 0.00 0.00 0.00 0.00 0.00 0.00 0.00 0.00 0.00 0.00 0.00 0.00 0.00 0.00 0.00 0.00 0.00 0.00 0.00 0.00 0.00 0.00 0.00
0.00 0.00 0.00 0.00 0.00 0.00 0.00 0.00 0.00 0.00 0.00 0.00 0.00 0.00 0.00 0.00 0.00 0.00 0.00 0.00 0.00 0.00 0.00 0.00 0.00 0.00 0.00 0.00 0.00 0.00 0.00 0.00 0.00 0.00 0.00 0.00 0.00 0.00 0.00 0.00 0.00 0.00 0.00 0.00 0.00
0.00 0.00 0.00 0.00 0.00 0.00 0.00 0.00 0.00 0.00 0.00 0.00 0.00 0.00 0.00 0.00 0.00 0.00 0.00 0.00 0.00 0.00 0.00 0.00 0.00 0.00 0.00 0.00 0.00 0.00 0.00 0.00 0.00 0.00 0.00 0.00 0.00 0.00 0.00 0.00 0.00 0.00 0.00 0.00 0.00
0.00 0.00 0.00 0.00 0.00 0.00 0.00 0.00 0.00 0.00 0.00 0.00 0.00 0.00 0.00 0.00 0.00 0.00 0.00 0.00 0.00 0.00 0.00 0.00 0.00 0.00 0.00 0.00 0.00 0.00 0.00 0.00 0.00 0.00 0.00 0.00 0.00 0.00 0.00 0.00 0.00 0.00 0.00 0.00 0.00
0.00 0.00 0.00 0.00 0.00 0.00 0.00 0.00 0.00 0.00 0.00 0.00 0.00 0.00 0.00 0.00 0.00 0.00 0.00 0.00 0.00 0.00 0.00 0.00 0.00 0.00 0.00 0.00 0.00 0.00 0.00 0.00 0.00 0.00 0.00 0.00 0.00 0.00 0.00 0.00 0.00 0.00 0.00 0.00 0.00
0.00 0.00 0.00 0.00 0.00 0.00 0.00 0.00 0.00 0.00 0.00 0.00 0.00 0.00 0.00 0.00 0.00 0.00 0.00 0.00 0.00 0.00 0.00 0.00 0.00 0.00 0.00 0.00 0.00 0.00 0.00 0.00 0.00 0.00 0.00 0.00 0.00 0.00 0.00 0.00 0.00 0.00 0.00 0.00 0.00
0.00 0.00 0.00 0.00 0.00 0.00 0.00 0.00 0.00 0.00 0.00 0.00 0.00 0.00 0.00 0.00 0.00 0.00 0.00 0.00 0.00 0.00 0.00 0.00 0.00 0.00 0.00 0.00 0.00 0.00 0.00 0.00 0.00 0.00 0.00 0.00 0.00 0.00 0.00 0.00 0.00 0.00 0.00 0.00 0.00
0.00 0.00 0.00 0.00 0.00 0.00 0.00 0.00 0.00 0.00 0.00 0.00 0.00 0.00 0.00 0.00 0.00 0.00 0.00 0.00 0.00 0.00 0.00 0.00 0.00 0.00 0.00 0.00 0.00 0.00 0.00 0.00 0.00 0.00 0.00 0.00 0.00 0.00 0.00 0.00 0.00 0.00 0.00 0.00 0.00
0.00 0.00 0.00 0.00 0.00 0.00 0.00 0.00 0.00 0.00 0.00 0.00 0.00 0.00 0.00 0.00 0.00 0.00 0.00 0.00 0.00 0.00 0.00 0.00 0.00 0.00 0.00 0.00 0.00 0.00 0.00 0.00 0.00 0.00 0.00 0.00 0.00 0.00 0.00 0.00 0.00 0.00 0.00 0.00 0.00
0.00 0.00 0.00 0.00 0.00 0.00 0.00 0.00 0.00 0.00 0.00 0.00 0.00 0.00 0.00 0.00 0.00 0.00 0.00 0.00 0.00 0.00 0.00 0.00 0.00 0.00 0.00 0.00 0.00 0.00 0.00 0.00 0.00 0.00 0.00 0.00 0.00 0.00 0.00 0.00 0.00 0.00 0.00 0.00 0.00
0.00 0.00 0.00 0.00 0.00 0.00 0.00 0.00 0.00 0.00 0.00 0.00 0.00 0.00 0.00 0.00 0.00 0.00 0.00 0.00 0.00 0.00 0.00 0.00 0.00 0.00 0.00 0.00 0.00 0.00 0.00 0.00 0.00 0.00 0.00 0.00 0.00 0.00 0.00 0.00 0.00 0.00 0.00 0.00 0.00
0.00 0.00 0.00 0.00 0.00 0.00 0.00 0.00 0.00 0.00 0.00 0.00 0.00 0.00 0.00 0.00 0.00 0.00 0.00 0.00 0.00 0.00 0.00 0.00 0.00 0.00 0.00 0.00 0.00 0.00 0.00 0.00 0.00 0.00 0.00 0.00 0.00 0.00 0.00 0.00 0.00 0.00 0.00 0.00 0.00
0.00 0.00 0.00 0.00 0.00 0.00 0.00 0.00 0.00 0.00 0.00 0.00 0.00 0.00 0.00 0.00 0.00 0.00 0.00 0.00 0.00 0.00 0.00 0.00 0.00 0.00 0.00 0.00 0.00 0.00 0.00 0.00 0.00 0.00 0.00 0.00 0.00 0.00 0.00 0.00 0.00 0.00 0.00 0.00 0.00
0.00 0.00 0.00 0.00 0.00 0.00 0.00 0.00 0.00 0.00 0.00 0.00 0.00 0.00 0.00 0.00 0.00 0.00 0.00 0.00 0.00 0.00 0.00 0.00 0.00 0.00 0.00 0.00 0.00 0.00 0.00 0.00 0.00 0.00 0.00 0.00 0.00 0.00 0.00 0.00 0.00 0.00 0.00 0.00 0.00
0.00 0.00 0.00 0.00 0.00 0.00 0.00 0.00 0.00 0.00 0.00 0.00 0.00 0.00 0.00 0.00 0.00 0.00 0.00 0.00 0.00 0.00 0.00 0.00 0.00 0.00 0.00 0.00 0.00 0.00 0.00 0.00 0.00 0.00 0.00 0.00 0.00 0.00 0.00 0.00 0.00 0.00 0.00 0.00 0.03
0.00 0.00 0.00 0.00 0.00 0.00 0.00 0.00 0.00 0.00 0.00 0.00 0.00 0.00 0.00 0.00 0.00 0.00 0.00 0.00 0.00 0.00 0.00 0.00 0.00 0.00 0.00 0.00 0.00 0.00 0.00 0.00 0.00 0.00 0.00 0.00 0.00 0.00 0.00 0.00 0.00 0.00 0.00 0.00 0.02
0.00 0.00 0.00 0.00 0.00 0.00 0.00 0.00 0.00 0.00 0.00 0.00 0.00 0.00 0.00 0.00 0.00 0.00 0.00 0.00 0.00 0.00 0.00 0.00 0.00 0.00 0.00 0.00 0.00 0.00 0.00 0.00 0.00 0.00 0.00 0.00 0.00 0.00 0.00 0.00 0.00 0.00 0.00 0.01 0.03
0.00 0.00 0.00 0.00 0.00 0.00 0.00 0.00 0.00 0.00 0.00 0.00 0.00 0.00 0.00 0.00 0.00 0.00 0.00 0.00 0.00 0.00 0.00 0.00 0.00 0.00 0.00 0.00 0.00 0.00 0.00 0.00 0.00 0.00 0.00 0.00 0.00 0.00 0.00 0.00 0.00 0.00 0.00 0.00 0.02
0.00 0.00 0.00 0.00 0.00 0.00 0.00 0.00 0.00 0.00 0.00 0.00 0.00 0.00 0.00 0.00 0.00 0.00 0.00 0.00 0.00 0.00 0.00 0.00 0.00 0.00 0.00 0.00 0.00 0.00 0.00 0.00 0.00 0.00 0.00 0.00 0.00 0.00 0.00 0.00 0.00 0.00 0.00 0.00 0.01
0.00 0.00 0.00 0.00 0.00 0.00 0.00 0.00 0.00 0.00 0.00 0.00 0.00 0.00 0.00 0.00 0.00 0.00 0.00 0.00 0.00 0.00 0.00 0.00 0.00 0.00 0.00 0.00 0.00 0.00 0.00 0.00 0.00 0.00 0.00 0.00 0.00 0.00 0.00 0.00 0.00 0.00 0.00 0.00 0.00
0.00 0.00 0.00 0.00 0.00 0.00 0.00 0.00 0.00 0.00 0.00 0.00 0.00 0.00 0.00 0.00 0.00 0.00 0.00 0.00 0.00 0.00 0.00 0.00 0.00 0.00 0.00 0.00 0.00 0.00 0.00 0.00 0.00 0.00 0.00 0.00 0.00 0.00 0.00 0.00 0.00 0.00 0.00 0.00 0.00
0.00 0.00 0.00 0.00 0.00 0.00 0.00 0.00 0.00 0.00 0.00 0.00 0.00 0.00 0.00 0.00 0.00 0.00 0.00 0.00 0.00 0.00 0.00 0.00 0.00 0.00 0.00 0.00 0.00 0.00 0.00 0.00 0.00 0.00 0.00 0.00 0.00 0.00 0.00 0.00 0.00 0.00 0.00 0.00 0.00
0.00 0.00 0.00 0.00 0.00 0.00 0.00 0.00 0.00 0.00 0.00 0.00 0.00 0.00 0.00 0.00 0.00 0.00 0.00 0.00 0.00 0.00 0.00 0.00 0.00 0.00 0.00 0.00 0.00 0.00 0.00 0.00 0.00 0.00 0.00 0.00 0.00 0.00 0.00 0.00 0.00 0.00 0.00 0.00 0.00
0.00 0.00 0.00 0.00 0.00 0.00 0.00 0.00 0.00 0.00 0.00 0.00 0.00 0.00 0.00 0.00 0.00 0.00 0.00 0.00 0.00 0.00 0.00 0.00 0.00 0.00 0.00 0.00 0.00 0.00 0.00 0.00 0.00 0.00 0.00 0.00 0.00 0.00 0.00 0.00 0.00 0.00 0.00 0.00 0.00
0.00 0.00 0.00 0.00 0.00 0.00 0.00 0.00 0.00 0.00 0.00 0.00 0.00 0.00 0.00 0.00 0.00 0.00 0.00 0.00 0.00 0.00 0.00 0.00 0.00 0.00 0.00 0.00 0.00 0.00 0.00 0.00 0.00 0.00 0.00 0.00 0.00 0.00 0.00 0.00 0.00 0.00 0.00 0.00 0.00
0.00 0.00 0.00 0.00 0.00 0.00 0.00 0.00 0.00 0.00 0.00 0.00 0.00 0.00 0.00 0.00 0.00 0.00 0.00 0.00 0.00 0.00 0.00 0.00 0.00 0.00 0.00 0.00 0.00 0.00 0.00 0.00 0.00 0.00 0.00 0.00 0.00 0.00 0.00 0.00 0.00 0.00 0.00 0.00 0.00
MSLP
1018.02 1017.62 1017.35 1017.07 1016.74 1016.48 1016.24 1016.03 1015.85 1015.65 1015.43 1015.26 1015.09 1014.91 1014.71 1014.42 1014.05 1013.98 1013.19 1010.99 1010.85 1010.89 1010.82 1011.21 1011.47 1011.47 1011.55 1011.83 1012.09 1012.60 1013.71 1014.42 1013.43 1012.34 1011.02 1009.60 1009.66 1008.60 1008.28 1008.21 1008.46 1008.73 1008.70 1008.67 1010.00
1017.91 1017.41 1017.03 1016.72 1016.40 1016.16 1016.00 1015.79 1015.58 1015.36 1015.17 1015.00 1014.82 1014.69 1014.52 1014.33 1014.03 1013.01 1010.43 1010.38 1010.60 1010.88 1011.09 1011.40 1011.63 1011.63 1011.94 1012.05 1012.24 1012.81 1013.87 1013.57 1012.55 1011.43 1010.78 1009.87 1009.59 1009.29 1008.66 1008.36 1008.42 1008.54 1008.50 1009.11 1009.94
1017.80 1017.27 1016.79 1016.40 1016.09 1015.82 1015.64 1015.46 1015.25 1015.05 1014.91 1014.79 1014.63 1014.54 1014.42 1014.33 1013.62 1010.72 1009.45 1010.00 1010.47 1010.87 1011.28 1011.38 1011.46 1011.70 1012.14 1012.16 1012.19 1012.56 1012.87 1012.45 1011.55 1011.11 1010.92 1009.97 1009.11 1008.73 1008.89 1008.73 1008.37 1008.47 1009.00 1009.63 1010.35
1017.67 1017.10 1016.57 1016.13 1015.76 1015.45 1015.25 1015.08 1014.93 1014.80 1014.71 1014.67 1014.55 1014.42 1014.30 1014.14 1012.40 1009.58 1009.30 1009.81 1010.55 1011.04 1011.46 1011.47 1011.64 1011.98 1012.22 1012.25 1012.01 1012.34 1011.69 1011.64 1010.86 1010.28 1010.37 1009.76 1008.88 1008.49 1008.26 1008.04 1007.66 1008.01 1008.72 1009.44 1010.62
1017.57 1017.01 1016.48 1015.97 1015.55 1015.23 1015.02 1014.88 1014.73 1014.63 1014.56 1014.46 1014.37 1014.35 1014.35 1013.46 1011.20 1009.50 1009.33 1010.00 1010.70 1011.02 1011.34 1011.56 1011.83 1012.16 1012.23 1012.11 1011.92 1011.94 1011.27 1011.01 1010.32 1009.96 1009.75 1009.31 1008.77 1008.65 1008.08 1008.03 1007.93 1008.47 1008.92 1009.68 1010.44
1017.63 1017.07 1016.51 1015.98 1015.50 1015.12 1014.88 1014.70 1014.57 1014.44 1014.34 1014.31 1014.34 1014.35 1013.97 1012.34 1009.74 1009.69 1009.78 1010.40 1010.64 1011.00 1011.29 1011.53 1011.69 1011.73 1011.93 1011.87 1011.82 1011.34 1010.97 1010.51 1009.92 1009.47 1009.19 1009.13 1008.65 1008.45 1007.96 1008.33 1008.70 1008.95 1008.86 1009.46 1009.99
1017.68 1017.09 1016.49 1015.99 1015.50 1015.04 1014.74 1014.53 1014.34 1014.22 1014.19 1014.26 1014.28 1014.14 1013.37 1011.02 1009.92 1009.97 1010.06 1010.39 1010.45 1010.74 1011.14 1011.28 1011.34 1011.62 1011.84 1011.82 1011.37 1011.24 1011.14 1010.29 1009.73 1009.38 1009.13 1008.65 1008.53 1008.29 1008.12 1008.68 1009.08 1009.19 1009.20 1009.83 1010.28
1017.66 1017.10 1016.51 1015.93 1015.44 1015.01 1014.64 1014.39 1014.17 1014.05 1014.13 1014.21 1014.20 1013.99 1012.38 1010.16 1010.00 1010.28 1010.19 1010.27 1010.37 1010.62 1010.72 1010.88 1011.22 1011.63 1011.94 1011.66 1011.72 1011.81 1011.64 1011.42 1009.91 1009.16 1008.75 1008.76 1009.07 1008.34 1008.59 1009.09 1009.15 1009.06 1009.27 1009.82 1010.25
1017.61 1017.09 1016.46 1015.86 1015.34 1014.93 1014.67 1014.36 1014.12 1014.08 1014.12 1014.21 1014.20 1013.62 1011.63 1010.10 1010.06 1009.73 1009.81 1009.96 1010.20 1010.50 1010.68 1010.83 1011.24 1011.89 1012.10 1012.69 1013.14 1013.14 1012.67 1012.05 1010.58 1009.68 1009.47 1009.60 1009.83 1008.89 1008.84 1009.27 1009.00 1009.39 1009.17 1009.42 1010.16
1017.41 1016.86 1016.34 1015.69 1015.11 1014.73 1014.40 1014.31 1014.24 1014.16 1014.29 1014.16 1013.66 1013.37 1011.14 1009.70 1009.22 1009.20 1009.49 1009.84 1010.08 1010.29 1010.74 1011.01 1011.78 1012.39 1013.20 1013.54 1014.07 1013.77 1013.37 1012.62 1011.88 1010.12 1009.84 1010.05 1010.04 1009.76 1009.38 1009.90 1009.99 1009.36 1008.83 1009.37 1009.87
1017.10 1016.45 1015.85 1015.33 1014.74 1014.46 1014.35 1014.44 1014.56 1014.18 1013.70 1012.60 1012.01 1011.38 1010.03 1009.06 1008.62 1009.13 1009.31 1009.91 1010.25 1010.60 1011.28 1011.45 1012.30 1012.88 1013.15 1013.40 1013.31 1013.42 1013.36 1013.08 1011.81 1010.42 1010.67 1010.25 1010.48 1010.35 1010.65 1010.24 1010.66 1010.19 1009.27 1009.33 1009.58
1017.08 1016.19 1015.46 1014.86 1014.35 1013.89 1014.00 1013.65 1012.70 1012.47 1012.01 1010.96 1010.56 1010.29 1009.44 1009.21 1009.26 1008.82 1009.24 1010.22 1010.53 1011.21 1011.63 1012.22 1012.32 1012.10 1012.35 1012.68 1013.02 1013.17 1013.16 1012.67 1011.89 1010.31 1010.67 1010.41 1010.80 1011.64 1011.80 1012.73 1012.80 1012.03 1010.76 1010.93 1011.01
1017.09 1016.07 1015.25 1014.41 1014.09 1013.98 1013.50 1012.52 1011.65 1011.70 1011.79 1010.07 1009.58 1009.18 1008.77 1009.06 1009.07 1008.56 1009.05 1009.71 1010.20 1011.18 1011.70 1012.10 1011.54 1011.59 1012.06 1012.15 1012.58 1012.42 1012.69 1012.23 1011.98 1010.73 1010.34 1010.69 1011.43 1012.12 1012.98 1013.39 1012.91 1012.83 1012.17 1012.22 1012.58
1016.87 1016.02 1015.13 1014.26 1014.02 1013.65 1012.89 1011.91 1011.59 1011.52 1011.86 1009.63 1008.64 1007.51 1007.87 1008.08 1008.19 1007.39 1007.94 1008.96 1009.98 1010.63 1011.51 1011.81 1011.04 1011.24 1011.43 1011.67 1011.81 1011.95 1011.19 1011.53 1011.73 1011.84 1011.60 1011.33 1012.65 1013.59 1014.72 1015.18 1014.89 1014.95 1014.60 1014.03 1013.66
1016.53 1015.65 1014.90 1014.54 1014.09 1013.29 1012.45 1011.85 1011.49 1011.64 1011.40 1008.49 1007.39 1006.12 1006.80 1007.53 1007.22 1007.20 1007.14 1008.23 1009.30 1010.23 1011.22 1011.13 1010.85 1010.76 1010.91 1010.82 1010.82 1011.08 1010.74 1011.37 1011.65 1012.15 1012.59 1012.90 1014.09 1014.93 1015.51 1016.22 1016.95 1016.73 1016.31 1015.50 1015.12
1016.10 1015.30 1014.72 1014.35 1014.33 1012.67 1012.09 1011.78 1011.81 1012.34 1010.10 1007.98 1006.84 1006.65 1007.05 1007.14 1007.08 1007.05 1007.48 1007.83 1008.65 1009.93 1010.48 1010.48 1010.05 1010.13 1009.83 1009.75 1010.10 1010.41 1011.05 1011.91 1012.74 1013.42 1014.19 1014.62 1015.55 1016.58 1017.01 1017.66 1018.00 1018.07 1017.46 1016.74 1016.14
1015.57 1014.73 1014.31 1013.89 1013.38 1012.45 1012.05 1012.57 1013.25 1012.22 1009.65 1008.71 1007.83 1007.29 1007.33 1007.51 1007.44 1007.45 1007.91 1008.52 1009.31 1010.26 1010.87 1010.36 1009.99 1009.48 1009.41 1009.76 1010.11 1010.65 1012.18 1013.39 1014.48 1015.13 1015.92 1015.75 1016.37 1017.11 1017.65 1018.23 1018.59 1018.70 1018.26 1017.61 1017.34
1015.35 1014.39 1013.96 1013.26 1012.72 1012.54 1012.81 1013.59 1013.59 1011.86 1010.40 1009.24 1008.60 1008.05 1008.06 1008.28 1008.28 1008.24 1008.41 1009.06 1009.28 1009.91 1010.73 1010.73 1010.11 1009.32 1009.15 1009.47 1010.23 1011.26 1012.47 1014.33 1015.67 1016.85 1017.24 1016.87 1017.29 1017.51 1017.97 1018.49 1018.90 1019.23 1018.95 1018.34 1017.96
1015.42 1014.37 1013.85 1013.29 1012.65 1012.77 1013.79 1014.39 1013.45 1012.43 1011.27 1010.32 1009.46 1009.12 1009.09 1009.25 1009.36 1009.37 1009.54 1009.57 1009.36 1009.62 1010.35 1010.70 1010.24 1009.48 1009.19 1009.47 1010.45 1011.87 1013.17 1014.29 1016.06 1017.78 1018.25 1017.96 1018.31 1018.34 1018.53 1018.80 1018.99 1019.15 1019.04 1018.88 1018.53
1017.36 1016.23 1014.55 1013.29 1012.79 1013.57 1014.62 1014.96 1013.88 1012.87 1011.91 1010.96 1010.74 1010.44 1010.40 1010.50 1010.40 1010.31 1010.07 1009.89 1009.78 1009.88 1010.08 1010.41 1010.64 1010.22 1009.94 1010.18 1011.17 1011.84 1013.59 1015.26 1016.89 1018.35 1019.20 1018.90 1018.63 1018.22 1018.61 1018.90 1019.06 1019.11 1018.96 1018.89 1018.88
1017.82 1016.60 1014.26 1013.34 1013.23 1014.75 1015.79 1015.47 1014.23 1013.17 1012.77 1012.10 1011.58 1011.43 1011.44 1011.43 1011.25 1011.28 1010.85 1010.39 1010.18 1010.05 1010.16 1010.75 1011.38 1011.71 1011.37 1011.41 1012.02 1013.25 1014.50 1016.20 1017.52 1018.60 1019.14 1019.30 1018.55 1016.93 1017.50 1018.07 1018.41 1018.50 1018.60 1018.72 1018.73
1019.95 1018.16 1014.83 1013.75 1015.06 1016.80 1017.11 1016.55 1015.17 1014.26 1013.48 1012.95 1012.53 1012.46 1012.43 1012.35 1012.23 1012.03 1011.46 1010.78 1010.58 1010.55 1010.93 1011.55 1012.40 1012.84 1012.43 1012.21 1012.31 1012.95 1014.23 1015.69 1017.80 1019.13 1019.44 1019.14 1017.31 1016.55 1016.92 1017.31 1017.77 1018.13 1018.47 1018.73 1018.63
1021.87 1019.96 1016.08 1015.47 1017.73 1018.74 1018.20 1017.14 1016.00 1015.32 1014.82 1014.11 1013.78 1013.66 1013.50 1013.43 1013.27 1012.29 1011.66 1010.94 1010.86 1011.07 1011.38 1012.04 1013.20 1013.74 1013.65 1013.47 1012.99 1013.26 1014.34 1015.57 1016.81 1017.99 1018.77 1018.88 1017.30 1016.67 1016.92 1017.33 1017.52 1017.90 1018.22 1018.47 1018.60
1022.49 1021.64 1019.75 1019.40 1020.68 1020.57 1020.09 1018.61 1017.40 1016.39 1015.86 1015.70 1014.96 1014.41 1014.48 1014.18 1013.81 1013.22 1012.59 1011.80 1011.60 1011.63 1011.79 1012.34 1013.53 1013.81 1013.53 1013.37 1013.23 1013.68 1014.25 1015.22 1016.04 1017.68 1017.78 1017.13 1016.64 1016.75 1016.76 1016.81 1017.11 1017.62 1017.96 1018.21 1018.26
1023.71 1024.23 1023.90 1022.91 1022.12 1022.02 1021.30 1020.07 1018.91 1018.17 1017.43 1016.84 1016.32 1016.74 1016.65 1015.81 1015.01 1014.44 1014.06 1013.47 1012.64 1012.59 1012.68 1013.24 1013.80 1013.91 1013.44 1013.08 1013.04 1013.07 1013.53 1014.50 1015.50 1015.75 1016.44 1015.75 1015.79 1015.39 1015.20 1015.44 1015.91 1016.62 1017.34 1017.97 1018.07
1025.68 1025.84 1025.07 1024.35 1023.51 1022.76 1021.88 1021.14 1020.67 1020.10 1019.51 1018.64 1018.50 1018.13 1017.65 1017.25 1017.08 1016.38 1015.55 1015.00 1014.29 1013.87 1013.81 1014.14 1014.12 1014.13 1013.92 1013.40 1013.24 1012.97 1012.93 1013.51 1014.05 1014.52 1014.79 1014.86 1014.74 1014.32 1014.29 1014.73 1015.49 1015.84 1016.78 1017.39 1017.61
1026.80 1026.66 1026.41 1025.07 1024.27 1023.65 1022.72 1022.45 1021.82 1021.48 1020.34 1019.78 1019.74 1019.13 1018.41 1018.10 1017.69 1016.89 1016.06 1015.62 1015.02 1014.95 1015.14 1015.17 1015.07 1015.26 1014.60 1013.99 1013.55 1012.69 1011.82 1012.29 1012.70 1012.97 1013.48 1014.02 1013.90 1014.05 1014.46 1014.57 1014.91 1015.61 1016.10 1016.74 1017.43
Thickness
5730 5734 5737 5740 5743 5746 5749 5752 5754 5756 5758 5759 5761 5763 5764 5767 5770 5771 5773 5794 5797 5798 5799 5794 5792 5792 5791 5784 5788 5782 5745 5729 5757 5765 5776 5797 5786 5808 5816 5810 5812 5815 5815 5825 5820
5730 5734 5738 5741 5745 5748 5750 5753 5755 5757 5759 5761 5763 5764 5765 5767 5769 5772 5800 5801 5799 5797 5792 5786 5781 5785 5773 5778 5778 5762 5735 5748 5768 5782 5780 5789 5792 5793 5800 5804 5805 5810 5822 5821 5817
5730 5734 5739 5743 5746 5749 5752 5754 5757 5759 5760 5762 5763 5764 5765 5766 5769 5786 5806 5803 5800 5797 5793 5789 5787 5782 5770 5774 5775 5766 5750 5762 5777 5780 5782 5786 5792 5805 5788 5790 5800 5800 5807 5810 5809
5730 5735 5740 5744 5748 5751 5754 5756 5758 5759 5761 5761 5762 5763 5764 5766 5759 5800 5806 5803 5798 5795 5790 5784 5779 5769 5761 5761 5773 5763 5773 5775 5782 5790 5785 5785 5801 5798 5804 5804 5816 5814 5813 5808 5799
5729 5734 5739 5744 5747 5751 5753 5755 5757 5758 5760 5761 5762 5762 5762 5762 5771 5802 5804 5800 5795 5792 5783 5777 5770 5765 5758 5764 5769 5765 5775 5783 5788 5787 5787 5795 5792 5796 5805 5811 5815 5810 5806 5800 5795
5726 5731 5736 5741 5745 5749 5752 5754 5756 5758 5760 5760 5760 5759 5762 5755 5797 5798 5799 5795 5792 5787 5781 5778 5772 5773 5767 5766 5765 5776 5778 5781 5788 5792 5793 5790 5794 5799 5810 5805 5801 5800 5802 5796 5792
5724 5729 5734 5738 5742 5747 5750 5753 5756 5758 5758 5758 5758 5759 5759 5766 5793 5794 5795 5791 5792 5787 5777 5781 5781 5774 5769 5761 5778 5777 5768 5775 5784 5790 5786 5792 5782 5787 5801 5794 5789 5792 5796 5789 5785
5723 5727 5732 5736 5741 5744 5748 5752 5754 5756 5757 5756 5757 5758 5757 5790 5792 5790 5792 5789 5791 5789 5787 5788 5784 5774 5766 5772 5764 5761 5758 5740 5774 5784 5788 5784 5751 5785 5789 5784 5784 5789 5790 5785 5780
5722 5726 5731 5736 5740 5744 5747 5750 5752 5754 5755 5754 5755 5758 5757 5790 5783 5791 5792 5785 5786 5786 5784 5787 5779 5762 5761 5742 5727 5731 5728 5739 5751 5777 5774 5771 5753 5780 5784 5775 5780 5780 5786 5785 5777
5723 5728 5731 5737 5741 5745 5748 5749 5749 5751 5751 5753 5756 5750 5770 5776 5789 5791 5793 5789 5780 5778 5770 5768 5751 5740 5728 5721 5699 5715 5722 5730 5730 5757 5758 5751 5751 5763 5774 5771 5771 5777 5787 5783 5778
5726 5731 5735 5740 5745 5747 5749 5748 5745 5746 5751 5757 5761 5760 5772 5790 5796 5785 5788 5778 5775 5764 5742 5752 5734 5719 5724 5727 5731 5728 5720 5715 5735 5757 5744 5743 5742 5750 5756 5758 5757 5763 5778 5777 5775
5725 5732 5738 5743 5747 5751 5750 5749 5755 5758 5745 5766 5768 5768 5780 5783 5766 5779 5784 5758 5753 5734 5742 5730 5716 5733 5737 5733 5726 5719 5712 5713 5725 5747 5737 5738 5738 5738 5737 5732 5733 5742 5759 5759 5759
5722 5731 5737 5744 5747 5748 5750 5755 5764 5764 5740 5759 5769 5768 5773 5775 5760 5765 5773 5760 5749 5732 5729 5717 5730 5742 5733 5728 5719 5718 5709 5711 5712 5738 5742 5736 5724 5728 5726 5725 5731 5735 5742 5744 5738
5721 5727 5735 5743 5745 5745 5746 5760 5762 5761 5710 5742 5759 5771 5774 5774 5759 5783 5780 5762 5746 5728 5725 5722 5734 5731 5725 5719 5718 5702 5730 5722 5718 5711 5692 5732 5682 5710 5698 5701 5705 5707 5713 5717 5724
5719 5726 5732 5736 5740 5739 5750 5755 5757 5747 5685 5757 5761 5793 5778 5762 5770 5769 5782 5762 5734 5730 5724 5718 5728 5724 5717 5719 5724 5713 5732 5720 5721 5706 5701 5696 5678 5688 5688 5685 5681 5687 5694 5700 5702
5717 5723 5728 5731 5730 5742 5747 5749 5743 5697 5687 5743 5763 5756 5755 5759 5760 5766 5760 5764 5753 5729 5728 5725 5737 5730 5725 5733 5731 5732 5723 5706 5690 5681 5664 5678 5672 5659 5662 5667 5668 5671 5679 5684 5688
5715 5721 5724 5727 5728 5738 5741 5729 5686 5675 5732 5725 5735 5749 5745 5741 5745 5746 5738 5728 5714 5697 5696 5713 5717 5730 5731 5716 5722 5712 5686 5656 5653 5651 5647 5667 5661 5653 5658 5656 5655 5654 5662 5669 5670
5711 5717 5718 5722 5728 5729 5723 5697 5676 5699 5709 5731 5730 5734 5725 5728 5730 5728 5726 5709 5722 5712 5688 5682 5681 5718 5725 5714 5703 5701 5684 5650 5640 5631 5640 5652 5647 5645 5651 5650 5647 5642 5644 5652 5656
5704 5709 5712 5714 5718 5717 5693 5663 5671 5689 5703 5701 5710 5708 5707 5712 5714 5707 5700 5696 5707 5706 5686 5670 5678 5714 5719 5716 5707 5689 5668 5672 5638 5629 5618 5630 5632 5637 5638 5637 5636 5635 5634 5635 5639
5677 5683 5694 5704 5708 5697 5668 5657 5670 5689 5692 5701 5684 5691 5681 5683 5688 5688 5689 5701 5696 5701 5698 5687 5670 5695 5701 5704 5692 5688 5673 5648 5629 5621 5594 5611 5622 5625 5622 5623 5623 5622 5625 5622 5624
5667 5673 5689 5695 5694 5667 5647 5650 5669 5681 5678 5679 5678 5674 5674 5673 5675 5671 5675 5687 5692 5691 5690 5681 5664 5663 5676 5670 5659 5655 5644 5629 5623 5611 5606 5598 5607 5632 5630 5624 5620 5620 5619 5617 5615
5637 5654 5678 5684 5654 5634 5637 5640 5656 5658 5662 5662 5666 5664 5661 5661 5657 5657 5658 5672 5680 5683 5669 5666 5642 5635 5652 5663 5666 5660 5644 5631 5602 5606 5590 5588 5601 5634 5627 5621 5615 5612 5610 5605 5605
5614 5618 5660 5662 5623 5616 5623 5633 5642 5641 5640 5642 5643 5647 5650 5646 5638 5648 5656 5674 5673 5668 5655 5653 5624 5608 5618 5633 5650 5647 5636 5623 5607 5595 5587 5586 5602 5619 5614 5610 5609 5605 5601 5598 5596
5609 5614 5617 5615 5602 5604 5600 5609 5616 5627 5627 5624 5629 5632 5629 5630 5633 5632 5641 5655 5657 5658 5658 5645 5617 5614 5608 5619 5626 5625 5626 5615 5606 5581 5595 5588 5608 5606 5605 5604 5601 5597 5593 5590 5590
5584 5581 5576 5577 5586 5578 5586 5592 5598 5595 5601 5604 5605 5596 5596 5601 5612 5615 5616 5620 5636 5637 5633 5621 5609 5610 5620 5627 5623 5623 5622 5604 5594 5600 5590 5609 5599 5612 5611 5609 5605 5597 5589 5582 5583
5557 5550 5552 5555 5560 5567 5568 5573 5571 5572 5576 5579 5572 5575 5577 5580 5580 5585 5592 5597 5601 5609 5609 5604 5601 5602 5608 5614 5612 5612 5613 5606 5603 5604 5593 5597 5596 5608 5609 5605 5598 5596 5586 5578 5577
5532 5532 5531 5540 5540 5547 5547 5545 5547 5544 5555 5558 5553 5555 5559 5559 5561 5567 5574 5581 5588 5587 5582 5582 5581 5576 5580 5598 5595 5587 5608 5608 5605 5603 5599 5585 5598 5599 5596 5597 5595 5587 5584 5576 5568